Simultaneous Nadir Overpasses (SNOs) Predictions

Prediction of SNOs between METOP-B and NOAA-19 Satellite Orbit:

Table of predicted SNOs for the next 14.0 days since TLE Epoch: 1/11/2013
Index Date (METOP-B) Time (METOP-B) Lat,Lon (METOP-B) SZA (METOP-B ) Date (NOAA-19) Time (NOAA-19) Lat,Lon (NOAA-19) SZA (NOAA-19 ) Distance(km) Time Diff (sec)
1 01/14/2013 21:02:56 -73.71, 38.48 85.08 01/14/2013 21:01:47 -73.73, 36.14 84.95 73.16 69
2 01/14/2013 21:53:47 73.16,-155.43 94.42 01/14/2013 21:52:44 73.17,-155.33 94.43 3.22 63
3 01/14/2013 22:44:28 -73.20, 11.97 85.56 01/14/2013 22:43:41 -73.20, 11.86 85.54 3.41 47
4 01/14/2013 23:35:09 73.15, 179.19 94.39 01/14/2013 23:34:48 73.12, 179.24 94.38 2.81 21
5 01/15/2013 00:25:51 -73.13, -13.52 85.63 01/15/2013 00:25:45 -73.16, -13.56 85.60 3.27 6
6 01/15/2013 01:16:31 73.13, 153.81 94.37 01/15/2013 01:16:53 73.13, 153.70 94.37 3.60 22
7 01/15/2013 02:07:13 -73.11, -38.90 85.66 01/15/2013 02:07:49 -73.11, -38.99 85.66 3.02 36
8 01/15/2013 02:57:54 73.06, 128.32 94.29 01/15/2013 02:58:56 73.04, 128.38 94.26 2.79 62
9 01/15/2013 03:48:38 -72.94, -64.60 85.82 01/15/2013 03:49:51 -72.97, -64.20 85.83 13.49 73
10 01/24/2013 20:56:11 -73.42, 39.54 87.46 01/24/2013 20:54:58 -73.40, 38.63 87.42 28.99 73
11 01/24/2013 21:46:56 73.18,-153.66 92.32 01/24/2013 21:46:00 73.17,-153.61 92.32 1.80 56
12 01/24/2013 22:37:38 -73.15, 13.61 87.72 01/24/2013 22:36:58 -73.16, 13.66 87.70 2.13 40
13 01/24/2013 23:28:18 73.16,-179.04 92.29 01/24/2013 23:28:04 73.13,-179.04 92.26 3.66 14
14 01/25/2013 00:19:00 -73.13, -11.77 87.75 01/25/2013 00:19:02 -73.12, -11.77 87.76 1.26 2
15 01/25/2013 01:09:41 73.09, 155.47 92.21 01/25/2013 01:10:08 73.09, 155.53 92.20 1.99 27
16 01/25/2013 02:00:23 -73.07, -37.26 87.83 01/25/2013 02:01:06 -73.08, -37.20 87.82 2.62 43
17 01/25/2013 02:51:03 73.08, 130.09 92.18 01/25/2013 02:52:12 73.05, 130.10 92.13 3.30 69
18 01/25/2013 03:41:53 -72.64, -63.49 88.22 01/25/2013 03:43:03 -72.69, -61.87 88.27 53.73 70




NCC Satellite Simultaneous Nadir Overpasses (SNOs) Prediction Service
